Regional Weather Roundup
Issued by NWS

Home | Current Version | Previous Version | Graphics & Text | Print | Product List | Glossary On
Versions: 1 2 3 4 5 6 7 8 9 10 11 12 13 14 15 16 17 18 19 20 21 22 23 24 25 26 27 28 29 30 31 32 33 34 35 36 37 38 39 40 41 42 43 44 45 46 47 48 49 50
000
ASUS43 KTOP 261059
RWRKS

WEATHER ROUNDUP FOR KANSAS
NATIONAL WEATHER SERVICE GOODLAND KS
600 AM CDT SUN APR 26 2015

NOTE:  "FAIR" INDICATES FEW OR NO CLOUDS BELOW 12,000 FEET WITH NO
SIGNIFICANT WEATHER AND/OR OBSTRUCTIONS TO VISIBILITY.

KSZ001>006-013>018-027>032-041>047-261200-
NORTHWEST KANSAS

CITY           SKY/WX    TMP DP  RH WIND       PRES   REMARKS
GOODLAND       CLOUDY    44  43  96 E17       29.84R FOG
HAYS           CLOUDY    46  37  71 E16       29.85S
HILL CITY      CLOUDY    46  44  93 E12       29.89R FOG
RUSSELL        CLOUDY    46  45  96 E10       29.84R
$$

KSZ061>065-074>080-084>089-261200-
SOUTHWEST KANSAS

CITY           SKY/WX    TMP DP  RH WIND       PRES   REMARKS
DODGE CITY     FOG       48  46  93 E17       29.79R VSB 3/4
ELKHART          N/A     53  45  74 E15         N/A
GARDEN CITY    FOG       47  47 100 E23G30    29.75F VSB 1/2
GREAT BEND     CLOUDY    46  43  87 NE16      29.84R
LIBERAL        CLOUDY    54  46  76 E18G24    29.75R
$$

KSZ066>073-081>083-090>101-261200-
SOUTHEAST KANSAS

CITY           SKY/WX    TMP DP  RH WIND       PRES   REMARKS
CHANUTE        CLOUDY    51  49  92 NE13G20   29.82R
COFFEYVILLE    CLOUDY    53  49  86 NE13      29.80S
HUTCHINSON     CLOUDY    50  45  83 NE12      29.83R
MEDICINE LODGE   N/A     50  49  96 NE13      29.79R
NEWTON         CLOUDY    48  43  81 NE10      29.85R
PARSONS        CLOUDY    53  50  89 VRB6      29.82R
WICHITA INTL   CLOUDY    50  46  86 NE18      29.82R
WICHITA JABRA  CLOUDY    49  47  93 NE13      29.82R
WINFIELD       CLOUDY    52  48  86 NE14      29.80S
$$

KSZ007>012-019>026-033>040-048>060-102>105-261200-
NORTHEAST KANSAS

CITY           SKY/WX    TMP DP  RH WIND       PRES   REMARKS
CONCORDIA      CLOUDY    47  45  93 NE8       29.88R FOG
EMPORIA        CLOUDY    48  48 100 NE9       29.84R FOG
LAWRENCE       CLOUDY    49  45  86 E7        29.87R
MANHATTAN      CLOUDY    49  47  93 NE14      29.87R FOG
OLATHE IND     CLOUDY    48  45  89 E9        29.87R
OLATHE EXE     CLOUDY    48  45  89 NE12      29.85R
SALINA         CLOUDY    50  46  86 NE7       29.87R
TOPEKA BILLARD CLOUDY    50  46  86 NE12      29.88R
TOPEKA FORBES  CLOUDY    50  46  86 E10       29.86R
$$


USA.gov is the U.S. government's official web portal to all federal, state and local government web resources and services.